Location: Samoth
(37.3328°N, 88.7876°W)
Time: 21:34:42
(UTC+00:00)

X-37B - Pass Details

Date: 30 September 2021
Orbit: 385 x 389 km, 45.0° (Epoch: 13 October)

Event Time Altitude Azimuth Distance (km) Brightness Sun altitude
Exits shadow 09:48:32 18° 24° (NNE) 1,016 3.1 -24.7°
Drops below altitude 10° 09:50:14 10° 55° (NE) 1,413 4.3 -24.4°
Sets 09:52:40 0° 73° (ENE) 2,268 5.9 -23.9°
